Location: Unspecified
(44.4377°N, 88.0525°W)
Time: 20:02:23
(UTC-05:00)

Cosmos 1674 - Visible Passes

Search period start: 30 July 2015 00:00
Search period end: 09 August 2015 00:00
Orbit: 505 x 531 km, 82.5° (Epoch: 30 July)

Date Brightness Start Highest point End Pass type
(mag) Time Alt. Az. Time Alt. Az. Time Alt. Az.
30 Jul 2.7 04:33:43 10° NNW 04:37:36 72° W 04:41:29 10° S visible
31 Jul 2.7 04:19:33 10° N 04:23:27 86° W 04:27:21 10° S visible
01 Aug 2.8 04:05:22 10° N 04:09:17 80° E 04:13:11 10° S visible
02 Aug 3.0 03:51:13 10° N 03:55:06 67° E 03:58:59 10° SSE visible
03 Aug 3.4 03:37:04 10° N 03:40:55 55° E 03:44:15 13° SSE visible
04 Aug 3.7 03:22:56 10° N 03:26:43 46° ENE 03:29:26 17° SSE visible
04 Aug 4.7 05:00:10 10° NW 05:02:08 13° W 05:03:56 10° WSW visible
05 Aug 4.0 03:08:49 10° N 03:12:30 39° ENE 03:14:41 21° SE visible
05 Aug 4.5 04:45:35 10° NW 04:48:00 16° W 04:49:42 12° WSW visible
06 Aug 4.3 02:54:43 10° N 02:58:17 33° ENE 02:59:59 23° ESE visible
06 Aug 4.3 04:31:06 10° NW 04:33:52 18° W 04:35:00 16° WSW visible
07 Aug 4.5 02:40:38 10° NNE 02:44:03 28° ENE 02:45:20 23° ESE visible
07 Aug 4.1 04:16:41 10° NW 04:19:43 21° W 04:20:22 20° WSW visible
08 Aug 4.7 02:26:35 10° NNE 02:29:48 24° ENE 02:30:44 22° E visible
08 Aug 3.9 04:02:18 10° NW 04:05:34 25° W 04:05:46 25° W visible
